{"data":{"norad_id":51756,"epoch":"2026-09-20T03:31:15.991104Z","epoch_age_seconds":82754,"freshness":"FRESH","line1":"1 51756U 22016AU  26263.14671286  .00004142  00000+0  13727-3 0  9992","line2":"2 51756  53.1589 141.5037 0001490  86.1500 273.9673 15.33537017253262","mean_motion":15.33537017,"eccentricity":0.000149,"inclination_deg":53.1589,"raan_deg":141.5037,"arg_perigee_deg":86.15,"mean_anomaly_deg":273.9673,"bstar":0.00013727,"rev_number":25326,"period_min":93.900569991914,"perigee_km":464.24974276016,"apogee_km":466.28907787043,"semimajor_km":6843.4064103153,"source":"CELESTRAK","updated_at":"2026-09-20T09:00:39.934866Z"}}